If you wish to contribute or participate in the discussions about articles you are invited to join SKYbrary as a registered user

 Actions

Châteaudun (BA 279) Airport

From SKYbrary Wiki

LFOC
Airport
ICAO: LFOC
Summary
Name Châteaudun (BA 279) Airport
Region Europe
Territory France FR.gif
Location , Centre
Serving Chateaudun
Elevation 131.978 m
433 ft
433 ft131.978 m
Type medium airport
Coordinates 48° 3' 29.31" N, 1° 22' 35.85" E
Runways
Designator Length Width Surface ROPS
10/28 2302 m7,552.493 ft
45 m147.638 ft
ASP /


METAR
Observation LFOC 110900Z AUTO 25007KT 9999 ////// 07/07 Q1012
Station Chateaudun
Date/Time 11 December 2019 09:00:00
Wind direction 250°
Wind speed 07 kts
Lowest cloud amount n/a
Temperature 7°C
Dew point 7°C
Humidity 100%
QNH 1012 hPa
Weather condition n/a